Starlink 30855

operational
NORAD ID: 58222 Int'l Des: 2023-170 Owner: SPXS Country: US Constellation: starlink
LEOCIRCULAR

About Starlink 30855

Description loading...

Live Position

Loading 3D Globe...

Upcoming Passes

Altitude History

Altitude vs Time

uPlot chart will show altitude changes over time

Two-Line Element Set

1 58222U 23170S 25258.17530816 -.00001385 00000-0 -87507-4 0 9995
2 58222 43.0011 69.9315 0001127 268.8135 91.2579 15.02531660103878
Epoch: Sep 15, 2025 • Age: 8 hours

Current Status

Altitude 562.5 km
Velocity 7.59 km/s
Sub-Earth Point 40.96°N, 46.52°W
Launch Date Nov 4, 2023
Age 1.8 years
Type internet

Technical Details

Classification Payload
Mass 730.00 kg
Dry Mass 700.00 kg
Total Mass 730.00 kg
Length 0.30 m
Diameter 4.10 m
Span 29.00 m
Shape Box + pan
Manufacturer SPXS
Bus Type Starlink V2M
Phase Status In Orbit
Owner/State SPXS/US

Large Constellations

Loading constellations...